�N����,����,�~����,�C��,���x,�C��,����,���ϕ���,�ő�u�ԕ���,�ő厞����,���˗�,�I�_���x,�n�����x,�ő啗���N��,DTYPE
"21/09/20","00:10",0.0,20.9,88.7,1010.4,317.0,1.1,2.0,338.2,0.00,19.0,23.4,"00:07:04",1
"21/09/20","00:20",0.0,20.9,89.1,1010.7,311.4,1.3,1.8,313.6,0.00,19.1,23.6,"00:10:32",1
"21/09/20","00:30",0.0,21.0,89.3,1010.4,317.3,1.3,2.1,315.2,0.00,19.2,23.3,"00:29:52",1
"21/09/20","00:40",0.0,21.1,89.5,1010.2,328.6,1.6,2.4,324.6,0.00,19.3,23.4,"00:38:40",1
"21/09/20","00:50",0.0,21.1,89.6,1010.2,325.9,1.7,2.8,331.6,0.00,19.4,23.6,"00:46:56",1
"21/09/20","01:00",0.0,21.0,89.6,1010.4,329.2,2.2,4.0,334.4,0.00,19.3,23.6,"00:58:16",1
"21/09/20","01:10",0.0,21.1,89.6,1010.4,325.7,2.3,3.9,338.3,0.00,19.4,23.5,"01:07:12",1
"21/09/20","01:20",0.0,21.1,89.6,1010.4,327.9,2.1,3.6,342.1,0.00,19.4,23.3,"01:17:28",1
"21/09/20","01:30",0.0,21.1,89.6,1010.0,337.6,1.6,2.6,336.4,0.00,19.4,23.3,"01:27:12",1
"21/09/20","01:40",0.0,21.2,89.6,1010.2,335.6,1.7,3.7,336.5,0.00,19.5,23.5,"01:30:16",1
"21/09/20","01:50",0.0,21.2,89.6,1010.7,339.9,1.6,3.6,341.4,0.00,19.5,23.4,"01:43:20",1
"21/09/20","02:00",0.0,21.2,89.5,1010.2,335.6,2.1,3.4,328.2,0.00,19.4,23.1,"01:58:00",1
"21/09/20","02:10",0.0,21.3,89.4,1010.7,332.9,2.2,4.4,345.9,0.00,19.5,23.2,"02:02:40",1
"21/09/20","02:20",0.0,21.4,89.2,1010.2,332.8,2.7,4.9,336.6,0.00,19.6,23.3,"02:14:56",1
"21/09/20","02:30",0.0,21.4,89.1,1010.2,335.0,2.2,4.0,336.0,0.00,19.6,23.3,"02:22:08",1
"21/09/20","02:40",0.0,21.4,89.0,1010.2,331.8,1.7,2.7,326.8,0.00,19.6,23.4,"02:36:32",1
"21/09/20","02:50",0.0,21.4,88.9,1010.4,331.2,2.0,3.7,335.1,0.00,19.5,23.3,"02:46:40",1
"21/09/20","03:00",0.0,21.3,88.8,1010.4,330.0,1.8,3.2,332.0,0.00,19.4,23.5,"02:54:32",1
"21/09/20","03:10",0.0,21.3,88.8,1010.4,322.8,1.8,2.9,325.6,0.00,19.4,23.1,"03:07:12",1
"21/09/20","03:20",0.0,21.3,88.9,1010.2,329.0,1.7,2.9,341.3,0.00,19.4,23.2,"03:10:24",1
"21/09/20","03:30",0.0,21.2,88.9,1010.2,318.9,1.7,2.7,327.9,0.00,19.3,23.2,"03:29:20",1
"21/09/20","03:40",0.0,21.2,89.0,1010.7,316.8,1.7,2.8,330.9,0.00,19.4,23.4,"03:30:56",1
"21/09/20","03:50",0.0,21.1,89.1,1010.2,311.3,1.6,2.7,343.1,0.00,19.3,23.2,"03:41:12",1
"21/09/20","04:00",0.0,21.1,89.2,1009.7,304.6,1.3,2.4,325.5,0.00,19.3,23.3,"03:59:12",1
"21/09/20","04:10",0.0,21.0,89.4,1009.7,306.5,1.6,3.6,335.2,0.00,19.2,23.1,"04:05:04",1
"21/09/20","04:20",0.0,21.0,89.5,1010.0,305.0,1.5,2.4,303.9,0.00,19.2,23.2,"04:10:08",1
"21/09/20","04:30",0.0,21.0,89.6,1009.5,287.9,1.1,1.9,325.9,0.00,19.3,23.0,"04:27:04",1
"21/09/20","04:40",0.0,21.0,89.7,1009.5,302.9,1.3,2.6,335.7,0.00,19.3,23.2,"04:31:20",1
"21/09/20","04:50",0.0,21.0,89.8,1009.7,297.4,1.5,3.2,334.1,0.00,19.3,23.1,"04:49:20",1
"21/09/20","05:00",0.0,21.0,89.8,1010.0,314.2,2.0,3.1,327.4,0.00,19.3,23.2,"04:55:28",1
"21/09/20","05:10",0.0,21.0,89.9,1009.7,308.5,1.8,3.3,312.4,0.00,19.3,23.0,"05:09:36",1
"21/09/20","05:20",0.0,21.0,89.8,1009.7,320.4,2.3,3.6,326.5,0.00,19.3,23.3,"05:10:40",1
"21/09/20","05:30",0.0,21.1,89.8,1009.7,328.0,2.0,3.5,316.7,0.00,19.4,23.2,"05:20:32",1
"21/09/20","05:40",0.0,21.1,89.7,1009.7,327.5,2.1,3.6,321.9,0.00,19.4,23.2,"05:36:08",1
"21/09/20","05:50",0.0,21.1,89.6,1010.0,328.6,1.7,2.6,340.1,0.00,19.4,22.9,"05:48:56",1
"21/09/20","06:00",0.0,21.1,89.6,1010.2,300.2,1.2,1.8,313.7,0.00,19.4,23.2,"05:50:16",1
"21/09/20","06:10",0.0,21.1,89.6,1010.0,327.0,1.8,3.7,345.7,0.00,19.4,23.1,"06:09:36",1
"21/09/20","06:20",0.0,21.2,89.6,1010.2,332.3,2.2,3.9,337.6,0.00,19.5,22.9,"06:12:56",1
"21/09/20","06:30",0.0,21.2,89.6,1010.2,326.8,2.0,3.4,342.7,0.00,19.5,23.0,"06:20:32",1
"21/09/20","06:40",0.0,21.3,89.5,1010.2,326.6,2.1,3.5,338.3,0.00,19.5,23.0,"06:31:36",1
"21/09/20","06:50",0.0,21.3,89.5,1010.4,319.3,2.0,4.1,326.8,0.00,19.5,23.0,"06:41:44",1
"21/09/20","07:00",0.0,21.3,89.5,1010.4,306.5,1.5,3.9,342.0,0.00,19.5,23.1,"06:57:20",1
"21/09/20","07:10",0.0,21.4,89.5,1010.4,308.4,1.3,2.6,335.5,0.00,19.6,22.9,"07:00:56",1
"21/09/20","07:20",0.0,21.5,89.4,1010.4,297.9,1.2,2.7,330.2,0.01,19.7,23.2,"07:17:20",1
"21/09/20","07:30",0.0,21.7,89.4,1010.7,304.0,1.1,1.8,322.7,0.01,19.9,23.0,"07:21:36",1
"21/09/20","07:40",0.0,21.8,89.3,1010.7,322.0,1.5,2.2,324.0,0.02,20.0,23.0,"07:31:44",1
"21/09/20","07:50",0.0,22.1,89.1,1010.7,321.5,1.2,1.9,320.2,0.03,20.3,23.1,"07:41:12",1
"21/09/20","08:00",0.0,22.3,89.0,1010.4,314.4,0.8,1.3,326.3,0.05,20.4,22.9,"07:57:20",1
"21/09/20","08:10",0.0,22.6,88.8,1010.2,277.1,0.6,1.2,253.8,0.08,20.7,23.1,"08:03:12",1
"21/09/20","08:20",0.0,22.9,88.3,1010.7,301.6,0.8,2.0,348.9,0.10,20.9,23.0,"08:15:12",1
"21/09/20","08:30",0.0,23.2,87.6,1010.4,282.5,0.8,1.7,319.8,0.12,21.1,22.7,"08:20:08",1
"21/09/20","08:40",0.0,23.8,86.7,1010.4,329.0,0.3,1.2,327.2,0.12,21.5,23.1,"08:31:12",1
"21/09/20","08:50",0.0,24.6,85.8,1010.2,299.0,0.3,0.9,7.4,0.25,22.1,23.0,"08:44:08",1
"21/09/20","09:00",0.0,25.2,82.7,1010.4,91.6,0.5,1.8,89.0,0.25,22.1,23.2,"08:55:44",1
"21/09/20","09:10",0.0,25.8,78.9,1010.0,85.4,0.6,1.6,120.2,0.25,21.9,23.1,"09:00:24",1
"21/09/20","09:20",0.0,26.3,76.5,1009.7,89.5,0.6,1.2,127.4,0.30,21.9,23.0,"09:15:44",1
"21/09/20","09:30",0.0,26.6,73.2,1009.7,168.3,0.7,1.9,132.7,0.29,21.4,23.2,"09:26:08",1
"21/09/20","09:40",0.0,26.8,71.9,1009.7,34.4,0.6,2.0,353.4,0.29,21.3,23.0,"09:36:08",1
"21/09/20","09:50",0.0,27.8,71.3,1010.0,155.6,0.7,2.2,151.1,0.43,22.2,23.2,"09:46:32",1
"21/09/20","10:00",0.0,27.7,68.1,1010.2,136.6,1.3,2.5,116.7,0.41,21.3,23.3,"09:50:48",1
"21/09/20","10:10",0.0,28.2,66.7,1010.7,134.5,0.8,2.2,109.3,0.43,21.5,23.5,"10:03:36",1
"21/09/20","10:20",0.0,28.7,67.1,1010.2,133.7,0.7,2.1,126.2,0.42,22.0,23.3,"10:10:24",1
"21/09/20","10:30",0.0,28.8,65.6,1010.7,118.1,1.2,2.7,113.2,0.48,21.8,23.3,"10:25:36",1
"21/09/20","10:40",0.0,29.2,65.1,1010.4,147.9,1.1,2.7,118.6,0.51,22.0,23.4,"10:32:00",1
"21/09/20","10:50",0.0,29.5,63.7,1010.4,152.9,1.3,2.4,60.3,0.55,21.9,23.5,"10:40:08",1
"21/09/20","11:00",0.0,29.5,62.3,1010.7,153.9,1.2,2.6,237.3,0.54,21.6,23.6,"10:53:44",1
"21/09/20","11:10",0.0,29.0,63.5,1010.7,176.6,1.7,3.3,212.2,0.41,21.4,23.7,"11:05:20",1
"21/09/20","11:20",0.0,29.3,63.5,1010.4,142.6,1.2,2.8,52.3,0.37,21.7,23.5,"11:15:52",1
"21/09/20","11:30",0.0,29.6,62.7,1010.2,68.3,1.0,2.7,357.4,0.36,21.8,23.8,"11:25:52",1
"21/09/20","11:40",0.0,30.2,61.3,1010.7,63.0,0.6,1.9,190.9,0.36,22.0,23.6,"11:30:02",1
"21/09/20","11:50",0.0,30.3,60.2,1010.4,164.2,1.1,3.1,214.3,0.53,21.8,23.9,"11:49:52",1
"21/09/20","12:00",0.0,30.3,59.9,1010.2,167.2,1.0,2.5,353.5,0.43,21.7,23.9,"11:57:28",1
"21/09/20","12:10",0.0,29.6,62.0,1010.2,84.8,0.7,1.7,354.1,0.24,21.6,24.2,"12:04:16",1
"21/09/20","12:20",0.0,30.8,58.4,1010.4,45.7,0.7,2.0,349.8,0.53,21.7,24.1,"12:17:20",1
"21/09/20","12:30",0.0,31.6,55.8,1010.4,88.5,0.7,1.7,99.2,0.56,21.7,24.1,"12:26:32",1
"21/09/20","12:40",0.0,31.8,53.7,1010.4,85.4,0.8,2.4,352.3,0.56,21.3,24.2,"12:37:28",1
"21/09/20","12:50",0.0,31.6,55.4,1010.7,207.1,1.1,3.3,227.1,0.54,21.6,24.2,"12:45:04",1
"21/09/20","13:00",0.0,31.8,52.6,1010.4,161.4,1.1,1.9,116.1,0.56,21.0,24.2,"12:51:52",1
"21/09/20","13:10",0.0,32.5,50.8,1010.9,78.4,0.7,1.6,118.8,0.49,21.0,24.4,"13:07:52",1
"21/09/20","13:20",0.0,32.5,51.8,1010.7,81.5,0.8,2.2,358.4,0.41,21.4,24.6,"13:14:00",1
"21/09/20","13:30",0.0,31.9,51.1,1010.4,157.8,1.1,2.6,178.2,0.45,20.6,24.5,"13:28:40",1
"21/09/20","13:40",0.0,31.2,53.2,1010.0,100.1,0.7,1.9,81.2,0.17,20.6,24.7,"13:30:48",1
"21/09/20","13:50",0.0,30.3,58.0,1010.0,129.0,1.1,2.8,137.2,0.11,21.2,24.6,"13:43:12",1
"21/09/20","14:00",0.0,29.7,60.2,1009.0,145.3,1.1,3.1,140.0,0.10,21.2,24.7,"13:50:08",1
"21/09/20","14:10",0.0,29.5,60.6,1008.8,142.2,0.8,2.2,158.1,0.10,21.1,25.0,"14:09:12",1
"21/09/20","14:20",0.0,29.4,60.1,1008.8,157.4,1.2,2.2,137.9,0.11,20.9,24.9,"14:13:12",1
"21/09/20","14:30",0.0,29.4,60.6,1008.6,142.3,1.1,2.5,121.5,0.12,21.0,24.8,"14:24:08",1
"21/09/20","14:40",0.0,29.3,58.9,1008.1,146.9,1.1,2.5,130.3,0.12,20.5,24.8,"14:39:28",1
"21/09/20","14:50",0.0,29.6,58.7,1008.3,163.0,0.7,1.8,111.2,0.12,20.7,25.0,"14:45:44",1
"21/09/20","15:00",0.0,29.8,58.8,1007.8,156.5,0.6,1.6,135.2,0.13,20.9,24.9,"14:53:12",1
"21/09/20","15:10",0.0,30.0,57.9,1008.3,164.8,0.8,1.8,131.7,0.14,20.8,25.2,"15:09:52",1
"21/09/20","15:20",0.0,30.7,55.4,1008.3,183.4,0.7,1.2,180.3,0.29,20.8,25.2,"15:16:56",1
"21/09/20","15:30",0.0,32.3,54.5,1009.0,221.5,0.7,1.7,351.5,0.28,22.0,25.0,"15:24:00",1
"21/09/20","15:40",0.0,30.2,57.8,1008.8,134.4,1.2,2.5,132.3,0.07,21.0,25.1,"15:34:24",1
"21/09/20","15:50",0.0,29.4,61.0,1008.1,139.8,1.0,2.1,202.5,0.05,21.1,25.0,"15:43:04",1
"21/09/20","16:00",0.0,29.4,62.7,1007.8,112.9,0.7,1.9,25.7,0.05,21.6,25.0,"15:55:52",1
"21/09/20","16:10",0.0,29.0,63.9,1007.6,143.8,1.1,2.2,83.1,0.06,21.5,25.0,"16:00:16",1
"21/09/20","16:20",0.0,29.4,64.4,1007.4,139.0,0.8,2.2,127.3,0.11,22.0,25.1,"16:17:20",1
"21/09/20","16:30",0.0,30.3,62.8,1007.4,146.4,0.8,2.1,115.6,0.15,22.5,25.2,"16:27:36",1
"21/09/20","16:40",0.0,30.2,61.3,1007.8,129.5,0.8,2.5,121.9,0.12,22.0,25.3,"16:34:00",1
"21/09/20","16:50",0.0,30.1,62.0,1007.8,94.5,1.0,2.7,130.2,0.08,22.1,25.2,"16:47:12",1
"21/09/20","17:00",0.0,29.5,63.3,1008.1,90.7,1.0,2.1,102.6,0.02,21.8,25.1,"16:55:20",1
"21/09/20","17:10",0.0,29.4,64.4,1007.6,72.1,0.5,1.1,93.3,0.03,22.0,25.1,"17:00:56",1
"21/09/20","17:20",0.0,28.9,65.3,1007.4,73.8,0.8,2.7,29.8,0.00,21.8,25.2,"17:11:52",1
"21/09/20","17:30",0.0,28.4,66.2,1007.1,16.9,0.8,2.1,35.6,0.00,21.5,25.3,"17:22:56",1
"21/09/20","17:40",0.0,28.3,67.1,1007.1,40.3,0.6,1.6,123.5,0.00,21.7,25.3,"17:39:44",1
"21/09/20","17:50",0.0,28.0,67.0,1007.1,143.7,0.7,2.7,142.5,0.00,21.3,25.3,"17:48:48",1
"21/09/20","18:00",0.0,28.0,67.2,1007.6,110.2,0.5,1.6,101.5,0.00,21.4,25.1,"17:51:44",1
"21/09/20","18:10",0.0,27.7,67.0,1007.4,70.3,0.7,2.6,124.6,0.00,21.1,25.2,"18:01:36",1
"21/09/20","18:20",0.0,27.7,67.0,1007.6,66.2,0.7,1.9,71.5,0.00,21.1,25.2,"18:11:04",1
"21/09/20","18:30",0.0,27.4,67.5,1007.6,32.9,0.3,1.1,60.4,0.00,20.9,25.0,"18:20:16",1
"21/09/20","18:40",0.0,26.9,68.2,1007.8,26.1,0.6,1.8,39.5,0.00,20.6,25.2,"18:39:12",1
"21/09/20","18:50",0.0,26.5,68.9,1008.3,46.3,0.2,1.2,12.6,0.00,20.4,25.2,"18:40:40",1
"21/09/20","19:00",0.0,25.8,69.9,1008.3,127.9,0.1,0.5,256.1,0.00,19.9,25.2,"18:51:20",1
"21/09/20","19:10",0.0,25.2,71.9,1008.6,222.9,0.1,1.2,128.7,0.00,19.8,25.2,"19:08:08",1
"21/09/20","19:20",0.0,24.9,73.5,1008.6,340.8,0.2,0.6,315.0,0.00,19.9,25.1,"19:15:20",1
"21/09/20","19:30",0.0,24.6,74.6,1008.3,332.9,0.3,1.0,334.4,0.00,19.8,25.1,"19:26:00",1
"21/09/20","19:40",0.0,24.4,76.4,1008.8,301.4,0.6,1.1,320.3,0.00,20.0,25.0,"19:30:32",1
"21/09/20","19:50",0.0,24.3,78.6,1009.0,286.9,0.8,1.3,261.9,0.00,20.4,24.9,"19:46:56",1
"21/09/20","20:00",0.0,24.0,80.1,1009.0,319.6,1.2,1.9,313.7,0.00,20.4,24.9,"19:57:52",1
"21/09/20","20:10",0.0,23.9,81.0,1009.3,323.8,1.1,1.6,319.4,0.00,20.5,25.0,"20:07:52",1
"21/09/20","20:20",0.0,23.8,81.6,1009.7,295.2,1.1,1.7,309.1,0.00,20.5,24.9,"20:17:44",1
"21/09/20","20:30",0.0,23.6,82.1,1009.7,333.5,0.7,1.9,344.1,0.00,20.4,25.1,"20:20:32",1
"21/09/20","20:40",0.0,23.3,82.5,1009.7,313.3,0.6,1.2,314.7,0.00,20.2,24.7,"20:39:20",1
"21/09/20","20:50",0.0,23.3,83.0,1009.7,293.6,1.0,1.7,321.5,0.00,20.3,24.9,"20:46:40",1
"21/09/20","21:00",0.0,23.0,83.6,1010.0,307.7,0.7,1.9,321.8,0.00,20.1,24.9,"20:55:04",1
"21/09/20","21:10",0.0,22.9,84.1,1010.0,304.8,0.8,1.8,325.8,0.00,20.1,25.0,"21:02:00",1
"21/09/20","21:20",0.0,22.7,84.6,1010.0,299.6,0.7,2.2,283.3,0.00,20.0,24.8,"21:12:08",1
"21/09/20","21:30",0.0,22.4,84.9,1010.0,286.0,0.5,1.3,265.6,0.00,19.8,24.7,"21:28:00",1
"21/09/20","21:40",0.0,22.4,85.5,1010.2,286.3,0.8,1.9,258.2,0.00,19.9,24.7,"21:33:36",1
"21/09/20","21:50",0.0,22.7,85.5,1010.2,147.8,0.6,1.4,112.5,0.00,20.2,24.8,"21:44:56",1
"21/09/20","22:00",0.0,22.9,85.0,1010.2,324.9,1.1,1.7,340.3,0.00,20.3,24.8,"21:51:44",1
"21/09/20","22:10",0.0,22.8,84.7,1010.7,296.6,0.6,1.3,305.0,0.00,20.1,24.6,"22:02:40",1
"21/09/20","22:20",0.0,22.7,84.4,1010.7,320.0,0.5,1.6,24.4,0.00,20.0,24.5,"22:11:36",1
"21/09/20","22:30",0.0,22.7,83.9,1010.9,333.0,0.7,1.7,316.1,0.00,19.9,24.8,"22:22:40",1
"21/09/20","22:40",0.0,22.5,83.2,1010.7,304.3,0.6,1.2,308.5,0.00,19.5,24.5,"22:31:36",1
"21/09/20","22:50",0.0,22.3,82.7,1010.4,326.9,0.6,1.3,331.6,0.00,19.3,24.5,"22:44:56",1
"21/09/20","23:00",0.0,22.4,81.5,1010.7,334.2,0.6,1.7,323.4,0.00,19.1,24.7,"22:55:28",1
"21/09/20","23:10",0.0,22.6,79.2,1010.7,36.2,0.7,2.1,32.5,0.00,18.9,24.5,"23:02:40",1
"21/09/20","23:20",0.0,23.0,76.4,1010.9,43.6,0.7,2.0,86.4,0.00,18.7,24.6,"23:17:12",1
"21/09/20","23:30",0.0,23.3,74.2,1011.2,49.8,0.7,1.6,59.0,0.00,18.5,24.6,"23:24:48",1
"21/09/20","23:40",0.0,23.4,73.2,1010.7,13.1,0.7,2.0,51.4,0.00,18.4,24.5,"23:32:32",1
"21/09/20","23:50",0.0,23.3,72.9,1010.7,29.3,0.7,1.9,356.7,0.00,18.2,24.5,"23:41:36",1
"21/09/20","24:00",0.0,23.2,73.3,1010.4,359.0,0.5,1.3,30.3,0.00,18.2,24.2,"23:51:20",1
